Location: Kuppenheim
(48.8299°N, 8.2568°E)
Time: 00:40:40
(UTC+00:00)

ERBS - Pass Details

Date: 26 October 2021
Orbit: 394 x 407 km, 57.0° (Epoch: 28 November)

Event Time Altitude Azimuth Distance (km) Brightness Sun altitude
Exits shadow 04:46:35 - 215° (SW) 1,510 4.8 -13.4°
Reaches altitude 10° 04:46:44 10° 215° (SW) 1,450 4.7 -13.3°
Maximum altitude 04:49:53 50° 139° (SE) 523 3.0 -12.8°
Drops below altitude 10° 04:53:04 10° 62° (ENE) 1,470 5.9 -12.3°
Sets 04:55:11 0° 57° (ENE) 2,338 6.9 -12.0°
